Temp
69 68 67 67 67 67 67 67 68 68 68 68 69 70 71 72 73 73 73 72 73 73 74 73 73 72 72 72 72 72 72 72 72 71 71 70 71 70 70 70 71 70 70 70 71 71 73 73 74 75 74 75 74 74 73 73 74 75 73 72 73 73 72
69 68 67 67 67 67 67 67 68 67 68 68 69 70 72 73 73 73 73 73 73 74 74 73 73 72 72 71 72 72 72 71 73 75 72 73 73 69 70 69 69 70 69 71 71 73 74 75 75 74 75 75 73 72 73 73 72 73 73 72 73 71 71
68 68 67 67 67 67 67 67 68 68 68 68 69 70 71 73 74 74 74 73 73 73 73 73 73 72 72 71 72 71 71 70 72 71 70 70 70 70 70 70 69 70 72 72 71 74 74 74 73 72 74 74 73 72 72 72 72 72 72 71 73 73 71
68 68 67 68 68 68 67 68 68 68 69 70 70 71 72 73 74 75 74 74 73 73 72 73 73 72 71 71 71 70 69 69 71 70 69 70 70 70 70 69 71 71 72 73 74 75 76 73 74 74 74 72 73 72 72 72 73 72 71 71 72 71 71
67 67 67 67 67 67 67 67 68 68 69 70 71 72 73 74 75 74 74 74 73 72 73 73 73 72 72 72 71 70 70 69 69 69 70 70 70 70 71 71 71 73 72 72 73 74 72 72 73 72 72 71 72 72 73 71 72 72 71 71 71 71 72
67 67 67 66 67 67 67 68 69 69 69 70 71 72 74 74 74 73 73 73 72 73 73 72 72 71 70 70 71 70 69 70 70 70 70 70 70 70 72 71 72 73 72 72 73 70 71 71 71 72 71 72 72 72 73 72 72 71 71 71 71 72 72
67 68 67 67 67 67 68 68 69 70 71 71 72 73 74 74 73 73 72 72 72 71 71 71 70 70 70 69 69 70 70 70 69 70 70 70 71 70 70 72 73 72 72 71 72 70 71 71 70 71 71 71 74 73 71 70 71 71 70 70 71 70 70
68 68 68 68 68 69 69 69 70 71 71 71 72 72 72 73 74 72 71 71 71 71 70 70 69 69 69 70 69 70 70 70 69 70 70 71 71 71 72 71 70 72 72 72 71 70 71 71 73 72 71 73 72 71 71 70 70 71 71 71 71 71 71
69 69 69 69 69 70 70 70 70 71 70 70 70 71 72 73 72 71 71 70 70 71 70 71 70 69 70 70 69 70 70 70 70 70 71 71 70 72 72 71 71 72 72 71 71 71 71 73 72 71 71 70 71 70 71 70 71 71 70 70 70 70 71
68 68 68 69 70 70 69 70 70 70 69 69 69 70 71 71 70 70 69 70 70 71 70 70 70 70 69 69 70 70 70 70 70 70 71 71 70 71 71 71 71 71 71 71 72 73 72 69 70 71 70 70 70 70 70 70 70 70 70 70 70 70 70
67 67 68 69 69 69 69 69 69 69 69 69 69 70 69 69 69 69 70 70 70 70 70 70 70 70 70 70 70 69 70 70 70 70 70 71 70 71 71 71 71 73 72 72 72 72 70 71 70 70 69 71 71 70 70 70 70 69 70 70 70 69 69
67 68 67 68 68 68 68 69 69 69 69 69 69 69 69 69 69 69 69 69 70 70 70 70 71 70 70 70 70 69 70 70 70 71 71 71 71 71 71 72 72 72 72 71 71 70 70 70 68 72 70 70 70 69 69 69 69 69 69 69 69 69 69
67 67 68 68 68 68 68 68 69 69 69 69 70 69 69 69 69 69 69 69 70 70 70 70 70 70 70 70 70 69 70 70 70 71 71 72 71 71 71 71 71 71 71 72 70 70 70 69 69 70 71 70 69 69 69 69 69 69 69 69 69 68 69
68 67 67 67 67 67 68 69 68 68 68 68 69 69 69 70 70 69 69 69 69 70 70 70 70 69 70 70 70 70 70 70 71 71 71 71 71 71 71 71 71 70 71 72 69 69 70 70 71 70 70 69 69 69 70 69 69 69 70 69 69 69 69
66 66 66 67 67 68 68 68 68 68 68 68 68 68 68 69 69 69 69 70 69 70 70 70 70 69 70 70 70 70 71 71 71 71 72 72 70 71 70 70 70 69 70 71 70 71 70 69 68 69 69 69 68 68 69 69 69 70 71 71 71 70 69
66 66 67 67 67 68 68 69 68 68 68 67 68 68 68 68 68 68 69 69 69 69 70 70 70 70 69 70 70 71 71 71 72 71 71 70 70 70 70 70 70 70 69 69 69 69 69 67 68 68 68 68 68 68 69 69 69 74 74 75 73 70 69
66 66 67 68 67 68 69 69 69 68 68 68 68 68 68 68 69 69 69 69 69 69 70 70 70 70 70 70 71 71 71 71 71 71 70 70 70 70 70 69 70 69 69 69 69 68 70 69 68 68 68 67 67 68 69 69 70 73 69 71 72 72 70
66 66 67 67 68 68 68 68 68 68 68 68 68 68 68 68 68 68 69 69 69 70 70 70 70 70 70 71 71 71 70 71 71 70 70 70 70 70 70 69 70 69 69 69 68 68 67 67 68 67 67 68 66 67 68 69 71 68 69 71 70 71 71
67 67 67 67 68 68 69 69 68 68 69 69 68 68 69 69 68 68 69 69 70 70 70 70 70 70 70 70 71 71 70 71 71 70 70 70 70 70 69 69 69 69 69 69 70 68 68 67 66 67 66 67 66 69 68 68 70 68 69 69 68 68 71
68 68 68 69 69 70 70 70 70 70 70 69 69 70 70 70 70 70 70 70 70 70 70 70 70 70 71 71 70 70 70 70 69 68 68 68 68 68 68 68 68 68 69 69 68 67 67 66 67 65 65 67 67 66 67 67 70 67 67 67 67 67 69
68 68 68 68 69 70 70 70 70 69 69 69 69 69 69 68 70 69 70 70 70 70 70 70 70 70 70 69 68 68 68 68 67 67 67 68 68 67 67 67 67 68 70 69 69 68 69 67 66 68 69 67 65 66 67 67 67 66 67 66 65 65 70
69 69 69 70 70 70 70 70 70 71 70 71 70 69 69 69 69 69 69 70 70 69 70 70 69 69 68 67 67 68 68 67 67 67 67 67 67 67 67 67 67 68 70 69 66 65 65 65 65 66 66 66 65 66 66 67 65 65 65 65 64 67 69
71 71 71 72 73 72 72 72 72 73 72 70 70 70 69 69 69 69 69 69 69 69 69 69 68 68 68 67 67 67 67 67 67 67 67 67 66 66 66 67 67 66 67 67 65 65 65 65 65 66 65 65 67 65 65 65 65 63 63 63 63 66 67
72 72 73 73 72 73 72 72 72 73 72 70 70 70 69 69 69 68 69 69 68 69 68 68 67 67 68 67 67 67 67 67 68 67 67 66 66 67 68 67 67 65 67 66 66 65 64 64 65 65 65 65 65 66 65 66 67 63 62 62 63 67 67
72 73 73 73 73 72 72 70 71 71 71 70 69 68 69 70 69 69 69 69 68 69 68 67 67 67 67 67 67 67 67 67 67 67 67 67 68 68 67 67 67 65 64 64 64 65 63 66 65 65 64 64 65 67 68 66 66 62 62 62 63 65 67
70 71 71 72 73 73 72 71 72 70 69 69 68 68 69 70 69 69 69 68 69 68 67 66 66 67 67 67 67 67 67 67 68 68 68 67 68 67 65 65 65 63 64 64 64 65 63 63 64 62 64 64 64 64 64 64 64 65 62 62 62 63 66
71 72 72 72 72 73 70 70 70 68 67 67 68 69 70 70 70 68 69 68 68 66 66 66 67 67 67 67 67 67 67 68 68 68 68 66 64 65 66 64 64 64 64 64 63 62 62 62 63 62 62 62 62 62 63 64 65 65 62 61 61 62 64
71 71 71 72 72 70 69 68 67 66 67 67 69 69 70 70 69 68 68 67 66 66 66 66 67 67 67 67 67 67 68 68 68 67 67 66 65 63 62 63 63 64 62 62 61 61 61 61 62 60 61 61 62 63 62 63 65 65 63 61 60 59 61
70 70 69 69 68 70 69 67 66 66 66 67 69 69 69 70 68 68 68 67 67 67 68 68 67 67 67 67 67 68 68 67 69 69 66 67 65 64 63 63 63 63 62 61 61 61 62 60 60 60 60 61 61 61 61 62 63 65 65 63 60 59 59
68 68 68 69 69 68 67 66 66 66 67 67 68 68 69 69 68 68 67 66 68 69 70 69 67 67 67 68 67 66 66 67 67 65 66 65 64 64 63 62 62 62 62 60 61 60 61 60 59 59 60 60 60 62 62 62 61 63 64 64 62 59 58
67 67 68 67 68 68 67 66 66 66 66 67 67 68 68 69 69 68 66 67 69 69 68 68 68 68 66 65 66 66 63 63 63 64 64 65 65 65 64 64 63 63 60 60 58 58 59 59 60 60 60 60 60 60 61 61 61 61 63 64 65 62 59
66 67 67 67 67 67 67 67 67 66 65 66 67 67 68 69 70 68 67 68 69 68 68 68 67 66 64 64 64 63 64 63 63 63 64 64 64 64 63 64 63 63 61 59 59 59 58 59 61 61 61 61 60 60 60 61 60 60 61 63 63 63 62
66 66 66 66 67 67 67 67 66 66 66 65 66 67 67 67 68 68 68 68 68 68 67 67 67 66 64 63 64 63 64 64 63 64 64 63 63 63 62 62 58 61 63 62 59 59 60 62 61 61 61 61 60 60 59 59 59 60 60 60 60 61 61
65 65 66 67 67 67 67 67 66 66 65 64 65 66 67 67 67 67 67 67 67 67 67 67 66 65 64 65 65 64 64 65 68 65 63 64 62 62 61 58 58 59 62 61 62 61 61 61 60 60 61 60 60 58 58 59 59 60 60 60 60 58 58
65 65 66 66 66 67 66 66 65 65 65 64 65 65 65 65 65 66 66 66 66 66 67 67 67 64 63 63 64 65 66 65 65 63 61 60 60 59 59 60 61 62 61 60 58 60 62 61 60 62 61 60 58 58 59 60 60 62 59 56 53 53 54
65 66 65 66 67 66 66 66 65 65 64 63 64 65 65 64 64 65 66 66 66 66 66 65 64 63 63 63 63 63 64 63 62 61 61 60 59 60 63 65 62 59 62 62 65 62 56 56 60 61 61 59 60 60 60 60 62 57 49 47 47 48 48
65 65 65 66 65 65 65 65 66 65 64 64 65 65 65 64 64 64 65 65 65 65 64 63 64 63 63 64 62 63 63 61 60 58 56 57 58 59 61 61 61 53 52 57 62 56 50 47 49 50 53 58 60 61 58 57 53 49 47 47 47 46 46
66 66 66 66 65 65 65 65 65 65 64 64 65 64 64 64 63 63 64 64 63 63 63 63 63 62 62 63 64 65 62 59 61 61 61 58 57 58 58 57 58 61 56 53 53 53 50 48 48 48 48 50 54 59 61 57 52 48 47 47 47 47 46
MSLP
1011.20 1011.64 1012.04 1012.20 1012.52 1012.76 1013.00 1013.20 1013.32 1013.48 1013.60 1013.72 1013.76 1013.72 1013.64 1013.60 1013.60 1013.68 1013.92 1014.12 1014.32 1014.40 1014.36 1014.40 1014.52 1014.68 1014.92 1015.00 1015.00 1014.96 1014.96 1015.04 1015.12 1015.28 1015.16 1015.12 1015.12 1015.24 1015.36 1015.32 1015.32 1015.36 1015.40 1015.40 1015.48 1015.52 1015.40 1015.36 1015.36 1015.36 1015.40 1015.36 1015.40 1015.44 1015.48 1015.56 1015.68 1015.68 1015.68 1015.68 1015.72 1015.88 1015.96
1011.40 1011.68 1012.00 1012.20 1012.40 1012.84 1013.08 1013.16 1013.32 1013.48 1013.60 1013.72 1013.76 1013.76 1013.60 1013.56 1013.56 1013.72 1013.88 1014.00 1014.12 1014.28 1014.36 1014.44 1014.64 1014.92 1015.00 1015.04 1015.04 1015.04 1015.12 1015.12 1015.20 1015.08 1015.04 1015.20 1015.24 1015.36 1015.32 1015.36 1015.32 1015.32 1015.40 1015.36 1015.44 1015.40 1015.40 1015.32 1015.20 1015.32 1015.36 1015.36 1015.44 1015.48 1015.56 1015.68 1015.68 1015.68 1015.72 1015.76 1015.84 1015.92 1015.92
1011.44 1011.68 1011.96 1012.16 1012.24 1012.68 1013.04 1013.20 1013.32 1013.40 1013.48 1013.60 1013.68 1013.72 1013.64 1013.52 1013.44 1013.64 1013.84 1014.08 1014.32 1014.44 1014.48 1014.60 1014.72 1014.96 1015.00 1015.08 1015.16 1015.20 1015.16 1015.20 1015.16 1015.04 1015.20 1015.32 1015.40 1015.36 1015.32 1015.28 1015.24 1015.28 1015.36 1015.36 1015.44 1015.40 1015.32 1015.36 1015.32 1015.32 1015.40 1015.56 1015.64 1015.72 1015.72 1015.76 1015.76 1015.76 1015.76 1015.76 1015.80 1015.88 1015.92
1011.36 1011.60 1011.92 1012.04 1012.20 1012.48 1012.80 1013.04 1013.24 1013.36 1013.32 1013.36 1013.44 1013.52 1013.56 1013.52 1013.40 1013.52 1013.76 1014.04 1014.40 1014.56 1014.76 1014.72 1014.84 1015.04 1015.08 1015.12 1015.20 1015.20 1015.20 1015.16 1015.04 1015.08 1015.24 1015.28 1015.32 1015.28 1015.28 1015.28 1015.24 1015.28 1015.40 1015.44 1015.40 1015.32 1015.36 1015.40 1015.40 1015.48 1015.52 1015.60 1015.68 1015.68 1015.72 1015.72 1015.76 1015.80 1015.80 1015.80 1015.80 1015.88 1015.88
1011.64 1011.76 1012.12 1012.36 1012.44 1012.60 1012.88 1013.08 1013.24 1013.28 1013.32 1013.28 1013.32 1013.32 1013.44 1013.44 1013.52 1013.72 1013.92 1014.12 1014.36 1014.64 1014.64 1014.72 1014.80 1014.92 1014.96 1014.96 1015.00 1015.04 1015.00 1015.04 1015.12 1015.16 1015.20 1015.16 1015.16 1015.20 1015.20 1015.28 1015.24 1015.28 1015.32 1015.44 1015.40 1015.40 1015.52 1015.56 1015.56 1015.56 1015.60 1015.60 1015.68 1015.72 1015.80 1015.84 1015.88 1015.88 1015.88 1015.88 1015.88 1015.84 1015.88
1011.76 1011.92 1012.20 1012.44 1012.48 1012.56 1012.76 1012.96 1013.08 1013.16 1013.24 1013.36 1013.40 1013.48 1013.48 1013.52 1013.68 1013.96 1014.12 1014.28 1014.52 1014.60 1014.64 1014.76 1014.92 1014.96 1014.96 1015.04 1015.04 1015.08 1015.04 1015.04 1015.04 1015.12 1015.08 1015.12 1015.12 1015.20 1015.24 1015.20 1015.20 1015.24 1015.48 1015.48 1015.40 1015.40 1015.48 1015.60 1015.64 1015.68 1015.72 1015.72 1015.76 1015.88 1015.84 1015.80 1015.76 1015.72 1015.72 1015.76 1015.84 1015.88 1015.88
1011.68 1011.84 1012.16 1012.36 1012.48 1012.64 1012.76 1012.92 1012.96 1013.04 1013.08 1013.16 1013.24 1013.32 1013.48 1013.68 1013.92 1014.04 1014.20 1014.44 1014.52 1014.72 1014.84 1014.92 1014.92 1014.92 1014.96 1015.00 1015.04 1014.96 1015.08 1015.16 1015.16 1015.08 1015.04 1015.08 1015.04 1015.12 1015.16 1015.08 1015.16 1015.32 1015.36 1015.36 1015.40 1015.40 1015.48 1015.52 1015.60 1015.64 1015.68 1015.72 1015.76 1015.80 1015.84 1015.84 1015.76 1015.72 1015.76 1015.76 1015.76 1015.80 1015.88
1011.36 1011.80 1012.04 1012.20 1012.44 1012.56 1012.72 1012.80 1012.88 1012.96 1013.04 1013.20 1013.40 1013.60 1013.80 1013.84 1013.96 1014.24 1014.40 1014.44 1014.52 1014.64 1014.72 1014.80 1014.88 1014.88 1014.92 1014.92 1014.92 1014.92 1015.00 1015.00 1015.00 1014.96 1014.96 1015.00 1015.08 1015.08 1015.08 1015.12 1015.20 1015.24 1015.28 1015.40 1015.48 1015.48 1015.56 1015.64 1015.64 1015.68 1015.72 1015.76 1015.80 1015.80 1015.80 1015.76 1015.76 1015.72 1015.72 1015.76 1015.76 1015.76 1015.72
1011.36 1011.56 1011.84 1012.08 1012.28 1012.44 1012.52 1012.64 1012.76 1012.96 1013.24 1013.48 1013.60 1013.76 1013.92 1014.04 1014.16 1014.32 1014.36 1014.44 1014.44 1014.48 1014.60 1014.56 1014.56 1014.68 1014.72 1014.84 1014.92 1014.84 1014.76 1014.80 1014.96 1014.92 1014.96 1015.08 1015.16 1015.08 1015.08 1015.16 1015.16 1015.12 1015.24 1015.36 1015.44 1015.44 1015.48 1015.56 1015.56 1015.64 1015.64 1015.72 1015.76 1015.76 1015.76 1015.76 1015.72 1015.64 1015.68 1015.72 1015.76 1015.80 1015.72
1011.56 1011.84 1012.08 1012.16 1012.24 1012.36 1012.48 1012.64 1012.80 1013.08 1013.48 1013.72 1013.84 1013.96 1014.08 1014.12 1014.16 1014.28 1014.36 1014.36 1014.40 1014.44 1014.48 1014.56 1014.60 1014.68 1014.80 1014.80 1014.80 1014.80 1014.84 1014.88 1014.96 1015.04 1015.04 1015.20 1015.24 1015.20 1015.16 1015.16 1015.20 1015.16 1015.28 1015.36 1015.40 1015.52 1015.52 1015.52 1015.56 1015.60 1015.68 1015.76 1015.80 1015.80 1015.80 1015.76 1015.72 1015.68 1015.68 1015.68 1015.68 1015.72 1015.76
1011.56 1011.68 1011.92 1012.16 1012.40 1012.60 1012.76 1012.92 1013.12 1013.36 1013.56 1013.76 1013.88 1014.00 1014.08 1014.16 1014.24 1014.28 1014.32 1014.32 1014.36 1014.36 1014.36 1014.48 1014.56 1014.68 1014.80 1014.80 1014.88 1014.96 1014.96 1015.00 1015.08 1015.20 1015.24 1015.32 1015.24 1015.24 1015.20 1015.20 1015.24 1015.28 1015.40 1015.48 1015.56 1015.56 1015.60 1015.64 1015.60 1015.68 1015.76 1015.84 1015.88 1015.88 1015.84 1015.80 1015.76 1015.72 1015.64 1015.60 1015.60 1015.64 1015.64
1011.60 1011.68 1011.84 1011.96 1012.24 1012.56 1012.88 1013.00 1013.12 1013.36 1013.52 1013.64 1013.72 1013.84 1013.96 1014.08 1014.12 1014.16 1014.20 1014.24 1014.16 1014.28 1014.44 1014.44 1014.52 1014.64 1014.76 1014.84 1014.96 1015.12 1015.20 1015.16 1015.24 1015.24 1015.28 1015.36 1015.32 1015.32 1015.36 1015.36 1015.40 1015.48 1015.52 1015.56 1015.68 1015.72 1015.72 1015.72 1015.80 1015.80 1015.84 1015.84 1015.80 1015.80 1015.80 1015.76 1015.72 1015.72 1015.68 1015.60 1015.52 1015.52 1015.52
1011.36 1011.52 1011.64 1011.84 1012.12 1012.40 1012.64 1012.96 1013.12 1013.24 1013.36 1013.44 1013.60 1013.72 1013.80 1013.92 1014.04 1014.08 1014.12 1014.16 1014.12 1014.16 1014.28 1014.40 1014.52 1014.68 1014.80 1014.92 1015.04 1015.20 1015.28 1015.28 1015.28 1015.28 1015.40 1015.40 1015.40 1015.48 1015.52 1015.52 1015.56 1015.60 1015.68 1015.64 1015.72 1015.76 1015.80 1015.84 1015.84 1015.80 1015.84 1015.84 1015.84 1015.80 1015.76 1015.68 1015.64 1015.60 1015.52 1015.44 1015.40 1015.40 1015.40
1011.36 1011.56 1011.76 1011.92 1012.24 1012.48 1012.60 1012.68 1012.92 1013.16 1013.28 1013.40 1013.52 1013.56 1013.68 1013.68 1013.76 1013.92 1014.04 1014.16 1014.16 1014.24 1014.32 1014.40 1014.56 1014.76 1014.88 1015.00 1015.16 1015.24 1015.24 1015.24 1015.24 1015.32 1015.40 1015.40 1015.48 1015.60 1015.64 1015.64 1015.64 1015.68 1015.68 1015.68 1015.76 1015.76 1015.76 1015.76 1015.80 1015.84 1015.84 1015.84 1015.76 1015.72 1015.60 1015.56 1015.52 1015.44 1015.36 1015.32 1015.28 1015.28 1015.24
1011.52 1011.64 1011.84 1012.04 1012.16 1012.32 1012.48 1012.60 1012.76 1013.00 1013.20 1013.32 1013.44 1013.56 1013.68 1013.68 1013.80 1013.88 1014.00 1014.04 1014.16 1014.28 1014.32 1014.36 1014.60 1014.84 1014.96 1015.08 1015.20 1015.24 1015.24 1015.32 1015.40 1015.48 1015.60 1015.64 1015.76 1015.76 1015.76 1015.68 1015.68 1015.72 1015.68 1015.68 1015.68 1015.68 1015.72 1015.80 1015.84 1015.84 1015.84 1015.80 1015.72 1015.64 1015.56 1015.48 1015.44 1015.36 1015.28 1015.28 1015.24 1015.20 1015.24
1011.40 1011.68 1011.84 1011.96 1012.08 1012.12 1012.12 1012.20 1012.48 1012.76 1013.00 1013.28 1013.36 1013.48 1013.60 1013.72 1013.80 1013.88 1014.04 1014.16 1014.24 1014.32 1014.32 1014.48 1014.68 1014.88 1015.12 1015.28 1015.32 1015.32 1015.40 1015.48 1015.52 1015.64 1015.76 1015.84 1015.84 1015.80 1015.76 1015.76 1015.80 1015.80 1015.80 1015.84 1015.84 1015.88 1015.84 1015.88 1015.84 1015.80 1015.80 1015.80 1015.72 1015.64 1015.52 1015.44 1015.36 1015.20 1015.12 1015.08 1015.16 1015.20 1015.20
1011.32 1011.56 1011.68 1011.68 1011.80 1011.88 1011.92 1012.16 1012.36 1012.64 1012.92 1013.08 1013.20 1013.28 1013.40 1013.52 1013.64 1013.84 1014.04 1014.12 1014.20 1014.32 1014.36 1014.52 1014.80 1015.04 1015.20 1015.40 1015.40 1015.44 1015.48 1015.56 1015.64 1015.72 1015.80 1015.76 1015.76 1015.76 1015.84 1015.92 1015.92 1015.84 1015.84 1015.88 1015.88 1015.88 1015.80 1015.80 1015.80 1015.80 1015.76 1015.76 1015.72 1015.64 1015.56 1015.44 1015.32 1015.24 1015.24 1015.20 1015.16 1015.08 1015.12
1011.20 1011.36 1011.48 1011.56 1011.56 1011.64 1011.84 1012.08 1012.40 1012.60 1012.76 1012.84 1012.96 1013.16 1013.32 1013.48 1013.64 1013.88 1014.04 1014.04 1014.12 1014.24 1014.40 1014.64 1014.88 1015.12 1015.28 1015.32 1015.40 1015.44 1015.52 1015.64 1015.72 1015.80 1015.80 1015.80 1015.80 1015.80 1015.88 1015.88 1015.80 1015.88 1015.96 1015.96 1015.96 1015.88 1015.84 1015.80 1015.80 1015.80 1015.80 1015.76 1015.76 1015.72 1015.64 1015.52 1015.32 1015.32 1015.28 1015.24 1015.16 1015.04 1015.00
1010.80 1010.96 1011.08 1011.24 1011.44 1011.48 1011.56 1011.76 1012.00 1012.20 1012.40 1012.60 1012.76 1012.96 1012.96 1013.08 1013.52 1013.72 1013.72 1013.92 1014.04 1014.24 1014.48 1014.64 1014.80 1015.00 1015.12 1015.20 1015.36 1015.48 1015.72 1015.84 1015.88 1015.96 1015.96 1015.96 1015.92 1015.88 1015.96 1015.92 1015.92 1016.04 1016.04 1016.04 1015.92 1015.88 1015.88 1015.84 1015.88 1015.88 1015.80 1015.76 1015.72 1015.64 1015.52 1015.44 1015.24 1015.24 1015.20 1015.12 1015.08 1014.96 1014.88
1010.32 1010.44 1010.68 1010.80 1010.84 1010.96 1011.16 1011.48 1011.72 1011.92 1012.00 1012.12 1012.28 1012.44 1012.64 1012.84 1013.08 1013.32 1013.52 1013.76 1014.00 1014.16 1014.36 1014.56 1014.76 1014.92 1015.16 1015.44 1015.72 1015.88 1015.96 1016.04 1016.24 1016.56 1016.64 1016.60 1016.52 1016.64 1016.92 1017.04 1017.00 1016.64 1016.16 1015.96 1015.92 1015.88 1015.84 1015.84 1015.84 1015.76 1015.72 1015.68 1015.64 1015.56 1015.44 1015.28 1015.12 1015.12 1015.08 1015.04 1014.96 1014.84 1014.80
1010.36 1010.48 1010.60 1010.72 1010.92 1011.00 1011.08 1011.28 1011.52 1011.84 1012.16 1012.24 1012.36 1012.52 1012.68 1012.96 1013.08 1013.28 1013.52 1013.68 1013.92 1014.04 1014.28 1014.52 1014.76 1015.12 1015.36 1015.44 1015.36 1015.04 1014.96 1015.24 1015.48 1015.68 1016.08 1016.28 1016.36 1016.40 1016.40 1016.40 1016.32 1016.44 1016.24 1016.00 1015.88 1015.84 1015.80 1015.80 1015.80 1015.64 1015.56 1015.52 1015.52 1015.44 1015.28 1015.12 1015.04 1015.00 1014.96 1014.88 1014.84 1014.76 1014.64
1009.96 1010.08 1010.36 1010.36 1010.48 1010.68 1010.96 1011.24 1011.40 1011.52 1011.64 1011.80 1012.16 1012.40 1012.52 1012.80 1013.00 1013.28 1013.52 1013.60 1013.80 1014.04 1014.20 1014.52 1014.96 1015.12 1015.08 1015.12 1014.96 1014.92 1015.28 1015.72 1015.88 1016.00 1016.16 1016.32 1016.60 1016.68 1016.52 1016.48 1016.44 1016.44 1016.16 1015.92 1015.80 1015.72 1015.76 1015.72 1015.68 1015.60 1015.48 1015.36 1015.40 1015.32 1015.24 1015.04 1014.92 1014.88 1014.84 1014.80 1014.76 1014.68 1014.64
1009.24 1009.48 1009.52 1009.76 1009.84 1010.08 1010.20 1010.48 1010.76 1010.96 1011.32 1011.72 1011.92 1012.20 1012.40 1012.64 1012.88 1013.16 1013.52 1013.76 1013.88 1014.04 1014.40 1014.72 1014.92 1015.00 1014.92 1015.12 1015.68 1015.96 1016.16 1016.40 1016.56 1016.56 1016.36 1016.28 1016.60 1016.80 1016.48 1016.24 1016.32 1016.24 1016.00 1015.92 1015.84 1015.84 1015.80 1015.72 1015.68 1015.60 1015.60 1015.44 1015.40 1015.36 1015.24 1015.08 1014.84 1014.76 1014.76 1014.72 1014.64 1014.64 1014.60
1009.00 1009.12 1009.28 1009.48 1009.72 1009.96 1010.24 1010.48 1010.76 1010.96 1011.20 1011.68 1012.00 1012.16 1012.36 1012.60 1012.84 1013.20 1013.52 1013.72 1013.88 1014.20 1014.56 1014.64 1014.96 1015.40 1015.80 1016.04 1016.04 1016.16 1016.16 1016.16 1016.20 1016.52 1016.56 1016.44 1016.56 1016.36 1016.16 1016.08 1016.08 1015.96 1016.00 1016.00 1015.96 1015.92 1015.88 1015.80 1015.64 1015.52 1015.56 1015.48 1015.36 1015.28 1015.24 1015.04 1014.76 1014.72 1014.68 1014.64 1014.56 1014.48 1014.52
1009.04 1009.32 1009.44 1009.56 1009.72 1010.08 1010.32 1010.64 1010.76 1011.00 1011.28 1011.68 1012.08 1012.16 1012.16 1012.40 1012.76 1013.12 1013.48 1013.64 1013.88 1014.16 1014.48 1014.92 1015.68 1015.80 1015.40 1015.64 1015.52 1015.08 1015.16 1015.56 1015.80 1015.92 1016.12 1016.28 1016.04 1015.96 1015.96 1015.92 1015.92 1016.04 1016.08 1016.00 1016.00 1015.92 1015.84 1015.72 1015.68 1015.52 1015.40 1015.36 1015.32 1015.12 1015.16 1015.04 1014.84 1014.68 1014.60 1014.52 1014.44 1014.36 1014.36
1009.36 1009.56 1009.68 1009.72 1009.84 1009.92 1010.20 1010.48 1010.80 1011.24 1011.52 1011.76 1012.00 1012.04 1012.16 1012.40 1012.72 1013.08 1013.32 1013.52 1013.72 1014.20 1014.92 1015.56 1015.56 1015.08 1015.32 1015.52 1015.48 1015.44 1015.48 1015.52 1015.52 1015.56 1015.84 1015.88 1015.76 1015.76 1015.88 1015.96 1016.04 1016.00 1016.00 1015.92 1015.88 1015.88 1015.84 1015.84 1015.72 1015.60 1015.44 1015.32 1015.28 1015.16 1015.08 1015.04 1014.88 1014.64 1014.52 1014.44 1014.36 1014.24 1014.24
1009.12 1009.20 1009.52 1009.72 1009.96 1009.96 1010.48 1010.84 1011.04 1011.40 1011.64 1011.84 1011.96 1012.04 1012.16 1012.32 1012.72 1013.12 1013.36 1013.72 1014.40 1015.04 1015.28 1015.32 1014.96 1014.56 1015.00 1015.00 1015.12 1015.32 1015.32 1015.32 1015.40 1015.52 1015.68 1015.76 1015.84 1015.92 1015.92 1015.96 1015.92 1015.88 1015.88 1015.84 1015.88 1015.92 1015.88 1015.76 1015.72 1015.64 1015.48 1015.36 1015.32 1015.28 1015.08 1015.00 1014.96 1014.60 1014.44 1014.36 1014.24 1014.16 1014.16
1009.24 1009.56 1009.64 1009.72 1009.92 1010.20 1010.76 1011.12 1011.52 1011.80 1012.00 1012.04 1011.96 1012.00 1012.16 1012.36 1012.88 1013.36 1013.76 1014.12 1014.52 1014.92 1014.96 1014.96 1014.56 1014.60 1014.84 1015.00 1015.12 1015.24 1015.36 1015.36 1015.44 1015.60 1015.72 1015.80 1015.80 1015.88 1015.88 1015.92 1015.88 1015.84 1015.84 1015.96 1015.96 1015.84 1015.80 1015.76 1015.76 1015.68 1015.56 1015.40 1015.28 1015.20 1015.04 1014.84 1014.80 1014.72 1014.40 1014.28 1014.16 1014.08 1013.96
1009.52 1009.80 1010.04 1010.24 1010.56 1010.72 1010.88 1011.56 1011.92 1012.20 1012.32 1012.28 1012.16 1012.20 1012.28 1012.48 1013.00 1013.52 1013.80 1014.08 1014.48 1014.64 1014.72 1014.52 1014.64 1014.84 1014.92 1015.12 1015.24 1015.32 1015.32 1015.40 1015.56 1015.64 1015.72 1015.76 1015.72 1015.76 1015.84 1015.88 1015.88 1015.92 1016.00 1015.92 1015.84 1015.88 1015.88 1015.92 1015.96 1015.88 1015.76 1015.60 1015.36 1015.24 1015.12 1014.92 1014.72 1014.52 1014.40 1014.20 1014.12 1013.96 1013.80
1009.88 1010.12 1010.36 1010.48 1010.64 1010.92 1011.16 1011.84 1012.20 1012.40 1012.56 1012.48 1012.44 1012.44 1012.48 1012.60 1013.20 1013.64 1014.00 1014.48 1014.44 1014.52 1014.52 1014.60 1014.72 1014.96 1015.20 1015.32 1015.44 1015.44 1015.48 1015.56 1015.60 1015.64 1015.68 1015.72 1015.72 1015.76 1015.88 1015.96 1015.96 1015.96 1016.00 1016.00 1016.00 1016.08 1016.12 1016.08 1016.08 1016.00 1015.92 1015.84 1015.60 1015.24 1015.00 1014.84 1014.72 1014.48 1014.40 1014.24 1013.96 1013.80 1013.68
1010.28 1010.48 1010.64 1010.88 1011.16 1011.28 1011.56 1012.00 1012.40 1012.60 1012.80 1012.84 1012.84 1012.80 1012.84 1012.84 1013.20 1013.68 1014.20 1014.40 1014.28 1014.44 1014.64 1014.80 1014.88 1015.08 1015.28 1015.40 1015.44 1015.48 1015.60 1015.68 1015.72 1015.80 1015.88 1015.84 1015.76 1015.88 1016.00 1015.96 1015.96 1016.00 1016.12 1016.08 1016.16 1016.24 1016.28 1016.20 1016.16 1016.08 1015.96 1015.80 1015.60 1015.40 1015.12 1014.88 1014.72 1014.56 1014.28 1014.08 1013.88 1013.76 1013.64
1010.64 1010.80 1010.96 1011.16 1011.44 1011.64 1011.96 1012.20 1012.52 1012.76 1013.08 1013.20 1013.12 1013.12 1013.08 1013.16 1013.24 1013.76 1014.28 1014.24 1014.32 1014.48 1014.64 1014.84 1015.12 1015.36 1015.56 1015.64 1015.68 1015.76 1015.80 1015.92 1016.04 1016.04 1016.00 1015.96 1015.92 1015.92 1015.96 1016.08 1016.16 1016.20 1016.24 1016.28 1016.32 1016.36 1016.32 1016.20 1016.04 1015.92 1015.88 1015.76 1015.64 1015.44 1015.20 1014.96 1014.84 1014.56 1014.28 1014.04 1013.88 1013.72 1013.56
1011.04 1011.20 1011.36 1011.60 1011.72 1011.76 1012.12 1012.40 1012.84 1013.12 1013.28 1013.48 1013.52 1013.40 1013.40 1013.52 1013.68 1013.92 1014.12 1014.28 1014.40 1014.56 1014.76 1015.00 1015.24 1015.56 1015.76 1015.88 1015.96 1016.04 1016.04 1016.00 1016.12 1016.16 1016.16 1016.12 1016.12 1016.16 1016.24 1016.28 1016.36 1016.40 1016.40 1016.32 1016.28 1016.24 1016.08 1016.00 1016.00 1015.96 1015.92 1015.76 1015.60 1015.44 1015.28 1015.08 1014.80 1014.56 1014.28 1014.04 1013.84 1013.68 1013.56
1011.28 1011.52 1011.72 1011.72 1011.88 1011.92 1012.20 1012.56 1012.96 1013.32 1013.52 1013.76 1013.80 1013.72 1013.72 1013.84 1014.04 1014.16 1014.24 1014.40 1014.52 1014.68 1014.84 1015.16 1015.44 1015.72 1015.92 1016.00 1016.04 1016.12 1016.12 1016.20 1016.24 1016.24 1016.32 1016.32 1016.36 1016.40 1016.44 1016.48 1016.48 1016.44 1016.24 1016.12 1016.08 1016.00 1015.96 1016.00 1016.00 1016.00 1015.88 1015.76 1015.60 1015.48 1015.24 1015.00 1014.76 1014.48 1014.24 1014.00 1013.92 1013.84 1013.68
1011.56 1011.76 1011.92 1012.08 1012.20 1012.20 1012.48 1012.76 1013.16 1013.48 1013.60 1013.92 1013.92 1013.92 1014.00 1014.20 1014.32 1014.36 1014.40 1014.56 1014.64 1014.72 1015.08 1015.52 1015.72 1015.92 1016.12 1016.20 1016.20 1016.28 1016.24 1016.24 1016.24 1016.32 1016.40 1016.56 1016.60 1016.56 1016.52 1016.40 1016.28 1016.16 1016.00 1015.92 1015.96 1015.96 1016.00 1016.04 1016.00 1015.84 1015.72 1015.72 1015.60 1015.40 1015.12 1014.88 1014.64 1014.36 1014.24 1014.32 1014.36 1014.32 1013.92
1011.72 1011.92 1012.16 1012.24 1012.36 1012.56 1012.84 1013.04 1013.20 1013.52 1013.76 1014.04 1014.00 1014.04 1014.16 1014.32 1014.44 1014.48 1014.52 1014.64 1014.80 1014.92 1015.36 1015.76 1016.00 1016.16 1016.32 1016.36 1016.32 1016.36 1016.36 1016.44 1016.52 1016.60 1016.64 1016.60 1016.52 1016.36 1016.20 1016.12 1016.08 1016.08 1016.00 1015.92 1015.84 1015.96 1016.04 1016.04 1015.88 1015.72 1015.64 1015.52 1015.32 1015.28 1015.20 1015.00 1014.64 1014.36 1014.28 1014.08 1013.80 1013.60 1013.48
1011.72 1012.04 1012.28 1012.36 1012.60 1013.00 1013.16 1013.40 1013.44 1013.60 1013.92 1014.12 1014.04 1014.12 1014.24 1014.44 1014.60 1014.72 1014.88 1014.92 1015.08 1015.20 1015.52 1015.84 1016.12 1016.32 1016.40 1016.40 1016.40 1016.36 1016.40 1016.48 1016.60 1016.64 1016.60 1016.52 1016.48 1016.36 1016.24 1016.00 1015.80 1015.88 1016.00 1015.84 1015.68 1016.20 1016.20 1016.04 1015.92 1015.84 1015.64 1015.52 1015.20 1015.04 1014.96 1014.84 1014.60 1014.36 1014.12 1013.88 1013.68 1013.44 1013.20
1011.80 1012.00 1012.24 1012.48 1012.72 1013.12 1013.40 1013.64 1013.76 1013.84 1014.16 1014.20 1014.20 1014.36 1014.48 1014.72 1014.92 1015.00 1015.12 1015.24 1015.36 1015.48 1015.72 1015.88 1015.96 1016.20 1016.28 1016.28 1016.36 1016.36 1016.40 1016.48 1016.44 1016.40 1016.36 1016.44 1016.44 1016.44 1016.36 1016.32 1016.32 1015.84 1015.52 1015.68 1015.88 1015.84 1015.88 1015.76 1015.64 1015.52 1015.44 1015.40 1015.28 1015.04 1014.76 1014.56 1014.44 1014.32 1014.08 1013.80 1013.52 1013.24 1013.04
Wind_Speed
9 8 7 7 7 7 6 6 7 7 8 7 7 7 9 8 8 8 8 8 8 8 7 7 7 5 5 4 3 3 3 3 3 3 3 2 2 4 4 3 4 2 2 3 3 3 3 4 5 5 4 4 4 4 4 3 3 2 3 3 3 3 3
9 8 8 7 7 6 6 5 6 6 7 7 7 8 8 9 8 7 8 8 8 8 8 8 7 5 4 5 4 4 4 4 3 2 3 4 4 3 3 4 4 3 3 3 4 3 3 4 5 5 5 4 4 4 4 3 3 3 3 3 3 3 3
8 8 8 7 7 7 7 6 5 5 6 6 7 7 8 8 8 8 8 8 8 8 8 8 7 5 4 4 5 5 4 3 3 4 5 5 5 4 3 4 4 4 5 4 3 3 2 3 3 3 3 3 3 3 3 3 2 2 2 2 3 2 2
9 9 8 7 5 5 7 7 7 6 5 6 8 9 8 8 8 7 7 8 9 8 8 8 6 6 5 5 5 4 4 3 3 4 4 4 5 4 4 3 3 4 4 4 2 1 2 2 3 3 3 3 3 2 2 2 1 1 1 1 1 1 1
6 7 7 7 7 6 7 7 7 6 7 6 7 7 7 7 7 7 7 8 8 7 7 8 6 5 5 5 4 4 5 5 4 4 4 4 4 4 4 4 5 5 4 3 2 3 2 3 3 3 3 4 3 1 0 1 0 1 2 1 2 1 1
8 8 7 7 6 6 6 6 7 7 8 8 8 8 7 7 7 7 6 8 6 6 6 5 5 5 5 4 4 4 4 4 5 5 5 4 5 4 4 4 5 5 5 3 2 3 3 3 2 2 2 2 2 1 0 2 2 2 2 2 3 3 3
8 7 7 6 7 7 6 7 7 7 7 7 6 6 6 7 7 6 6 6 7 7 7 5 5 5 4 4 4 6 6 6 5 5 4 5 4 5 4 3 4 4 4 3 3 3 3 2 2 3 3 2 1 2 2 3 3 2 2 2 2 2 3
8 7 5 7 6 6 6 6 6 6 6 6 7 8 7 7 6 6 6 6 6 6 6 6 5 5 5 4 5 6 6 6 5 5 4 5 4 5 5 5 5 5 4 5 2 3 4 4 2 2 2 1 1 2 2 2 3 3 1 2 3 3 2
5 5 7 8 7 7 7 6 6 6 7 7 7 6 7 7 7 6 7 6 6 7 6 6 6 5 5 5 5 5 5 5 4 4 5 5 4 4 4 4 5 4 5 4 4 3 4 4 3 2 1 1 2 2 3 3 3 2 2 2 3 3 4
7 8 6 5 5 5 5 6 6 5 6 5 6 6 7 6 5 5 5 6 6 6 7 5 5 5 4 5 5 5 5 4 4 5 4 4 4 5 4 5 4 4 5 5 4 4 2 2 2 1 0 1 2 3 3 3 3 3 2 3 3 3 4
6 8 9 9 8 7 6 6 6 5 5 5 5 5 5 6 6 6 6 5 6 6 5 5 5 5 5 5 5 4 4 4 4 4 4 4 4 5 5 5 5 4 5 4 4 3 3 1 0 1 2 2 2 3 3 3 3 4 4 3 2 3 3
7 8 9 10 10 9 9 7 6 6 6 6 6 7 6 6 6 5 5 6 5 6 5 5 5 5 5 5 5 5 5 5 4 5 5 5 4 5 5 5 4 4 3 3 4 2 2 2 0 1 1 2 2 2 3 3 3 3 3 3 3 2 3
8 8 10 11 10 9 8 7 8 8 7 7 7 6 6 6 6 6 6 6 5 5 6 6 5 5 5 5 5 5 5 5 5 5 4 4 4 4 4 4 4 4 4 3 3 3 2 0 1 1 1 1 1 1 2 2 2 2 2 2 2 2 2
8 7 6 7 8 10 11 10 8 8 8 7 7 6 6 6 7 7 7 7 5 5 5 5 5 5 5 5 5 6 6 6 5 5 4 3 4 4 4 4 3 3 2 3 2 1 0 0 1 2 1 2 2 1 1 1 2 2 2 2 2 2 2
9 9 9 9 9 9 10 11 10 9 8 8 7 8 7 7 6 5 5 5 5 5 6 5 5 5 5 5 5 6 5 4 3 3 2 3 3 3 4 4 3 2 2 2 1 1 1 1 1 2 3 2 2 2 1 2 2 2 2 2 4 3 3
10 10 10 10 10 10 10 11 10 10 9 8 9 8 8 7 7 7 7 6 5 5 5 5 5 6 5 5 5 4 3 4 3 3 3 4 4 4 4 3 2 2 3 2 2 2 2 3 2 2 2 1 2 1 1 2 1 2 5 6 4 4 3
10 10 10 9 9 10 9 9 9 9 9 9 9 10 8 8 7 6 5 5 6 6 5 5 5 4 4 5 3 3 3 4 4 3 4 5 4 4 3 3 2 3 3 3 3 4 3 3 3 2 1 1 0 2 2 3 3 6 5 5 8 6 3
10 10 10 10 10 9 9 9 9 10 10 10 9 9 8 8 7 6 7 6 6 5 4 4 4 5 5 4 3 4 4 4 3 4 4 4 5 4 3 3 3 3 3 3 4 3 2 3 2 1 1 1 0 2 3 3 4 6 5 6 7 7 4
11 10 11 10 10 11 10 11 11 11 10 9 9 9 9 9 8 9 8 8 6 4 5 6 6 5 5 4 4 3 1 1 2 3 3 2 2 2 2 2 3 4 3 3 3 3 3 2 2 2 1 1 1 2 3 3 5 5 5 6 6 6 5
11 11 10 10 11 12 11 8 8 9 10 11 10 9 8 8 9 7 5 5 5 7 6 7 5 5 3 3 5 7 6 5 6 6 5 5 5 6 5 5 5 3 1 3 3 3 2 0 1 2 2 1 2 3 3 4 4 6 7 7 6 6 5
9 9 10 10 9 8 8 9 8 7 6 6 6 6 6 6 5 5 6 7 7 6 7 5 5 3 5 7 7 6 6 6 7 6 4 3 4 5 3 1 2 4 3 3 3 1 1 2 3 3 3 3 2 2 4 4 6 7 7 7 7 7 5
11 10 10 10 11 10 8 9 10 10 10 6 6 6 7 7 5 6 6 5 6 6 6 5 5 6 7 7 7 5 4 5 4 4 4 5 4 3 2 3 3 5 4 1 1 0 1 3 3 4 5 4 2 3 4 5 7 7 7 7 7 7 4
12 12 11 9 11 11 10 9 10 8 6 7 7 8 7 6 6 6 6 6 6 6 4 6 7 7 7 4 6 6 6 5 5 3 3 3 3 3 4 5 6 6 2 1 2 3 4 4 4 3 4 5 3 3 4 5 6 7 7 7 8 5 4
5 7 8 8 4 4 5 5 4 4 6 6 5 4 4 6 6 6 6 5 5 6 7 7 7 5 6 5 7 8 7 6 5 3 3 4 7 6 5 5 4 3 2 2 3 4 3 3 4 4 2 3 4 3 4 5 6 8 8 8 8 7 5
7 6 5 7 9 8 7 6 6 5 6 6 6 5 6 7 7 7 6 5 6 7 8 7 8 7 6 6 7 8 6 5 5 5 5 7 6 4 4 4 4 1 1 1 2 3 3 3 4 4 3 3 4 5 5 5 5 8 8 9 9 7 5
7 6 5 4 2 3 6 8 8 6 6 7 6 6 7 7 7 6 6 6 6 6 6 8 7 7 5 5 5 5 5 5 6 5 4 5 4 3 1 1 1 0 1 2 2 3 3 2 2 3 3 3 2 3 4 5 6 7 10 10 10 10 7
5 7 8 8 7 8 8 6 6 7 6 6 6 7 7 7 7 6 5 5 7 7 9 10 6 8 7 6 5 5 5 4 3 4 3 1 1 0 1 0 1 2 2 2 2 1 2 3 2 2 3 4 3 4 5 4 5 8 11 11 12 12 8
9 8 7 7 8 9 8 9 9 9 7 6 7 7 7 7 7 6 7 8 8 9 9 11 9 6 6 5 3 3 3 3 2 1 1 2 3 3 1 1 1 1 1 0 1 2 4 4 3 4 5 6 6 5 6 6 7 6 9 10 11 11 11
8 9 9 9 9 8 9 9 9 8 7 5 6 6 6 8 8 7 7 7 7 7 9 8 5 5 4 3 2 2 2 1 1 1 2 3 3 4 4 2 3 2 1 2 3 5 5 6 5 5 6 6 6 6 6 6 6 8 8 10 11 11 11
7 9 9 8 9 9 11 10 9 8 7 5 5 5 6 8 8 7 8 7 6 7 6 5 4 5 5 4 3 2 2 2 2 3 3 3 4 5 4 2 1 2 3 4 4 5 5 5 4 5 5 5 6 6 6 6 6 8 10 9 10 11 11
7 8 9 10 9 9 9 10 10 9 7 5 5 4 5 6 9 8 9 7 6 7 7 6 6 5 4 4 4 3 3 3 3 3 4 4 5 4 3 1 2 3 4 4 4 3 4 4 4 4 4 5 5 6 7 7 6 7 7 11 11 11 10
9 9 10 11 10 10 10 10 10 10 9 7 5 5 5 5 8 10 8 6 6 6 6 6 6 5 5 4 4 4 4 6 5 4 4 4 2 3 2 3 3 2 2 2 2 2 3 4 4 4 4 5 5 6 7 7 6 7 7 6 7 7 8
8 8 10 11 10 11 11 10 10 9 8 8 5 5 6 7 7 7 6 6 6 6 7 6 6 6 5 6 5 5 5 7 5 4 3 3 2 3 3 2 2 1 1 2 2 3 3 3 3 4 4 5 6 6 6 6 6 6 6 6 6 6 6
10 10 9 9 9 9 10 10 11 10 8 8 5 6 7 7 7 6 6 6 6 7 7 7 6 7 6 6 5 5 5 5 5 5 3 2 2 2 1 1 1 1 2 2 2 2 4 4 4 4 4 5 5 6 5 6 6 5 7 8 7 7 6
9 10 9 9 8 8 10 10 10 9 10 8 6 7 8 8 6 6 8 7 6 7 8 7 6 6 6 5 5 5 3 4 4 4 3 2 1 2 4 3 2 3 3 3 3 3 3 4 4 4 4 3 4 4 5 5 6 7 7 8 8 6 6
10 10 9 8 8 9 10 9 11 11 10 7 6 8 8 7 6 6 6 6 6 7 8 6 6 6 5 4 5 5 4 3 3 2 2 2 2 3 3 2 3 3 2 2 1 4 5 1 3 4 3 3 3 2 3 5 7 11 14 13 13 14 13
12 10 10 10 11 10 10 9 9 11 10 7 7 8 7 7 6 6 5 5 5 7 7 6 6 5 4 4 4 4 3 3 3 2 2 2 2 3 4 4 5 5 5 6 8 2 2 5 7 7 7 4 3 3 5 7 10 13 14 15 14 14 14
9 9 10 9 10 11 11 10 10 10 9 7 8 8 7 7 5 6 6 5 5 6 6 6 6 6 5 4 4 3 4 4 3 2 2 2 2 2 2 3 4 7 7 4 2 3 3 2 2 3 3 2 2 4 6 9 12 14 14 14 15 15 15
Wind_Direction
125 129 135 145 159 162 159 154 154 153 153 153 159 164 164 168 167 168 170 173 180 174 182 184 182 168 186 183 179 153 157 180 193 190 177 148 147 110 115 140 126 196 155 127 145 148 130 132 112 108 114 119 116 113 98 95 119 95 76 79 82 65 69
145 141 142 151 158 145 136 145 148 146 151 155 157 170 167 168 164 167 173 177 177 173 176 180 168 168 169 172 168 181 186 192 189 157 104 95 91 96 128 161 163 178 172 163 146 160 138 127 123 133 128 131 124 115 118 114 98 81 73 55 75 65 70
146 147 146 155 168 150 139 139 148 158 157 155 161 169 176 168 164 166 171 173 170 168 171 175 170 167 162 166 172 199 199 164 145 109 121 118 119 136 161 160 168 145 166 148 160 141 111 106 76 86 94 83 76 73 65 66 65 91 102 105 107 125 74
155 155 152 146 135 125 137 146 152 158 162 166 167 170 173 169 161 161 166 170 169 170 171 168 157 164 169 172 175 180 167 145 126 122 116 128 132 152 123 121 133 122 136 158 167 100 69 66 76 75 78 105 118 127 133 155 193 183 200 182 122 107 185
121 116 122 137 145 149 148 150 154 160 163 165 164 164 168 159 157 158 164 164 170 169 166 167 164 171 175 177 166 167 156 143 126 139 155 139 131 134 115 129 151 155 144 98 66 88 88 101 125 137 157 156 171 88 21 342 46 307 306 348 310 234 246
145 148 149 147 153 160 152 146 152 158 157 160 159 158 164 159 158 162 153 161 157 158 158 154 158 167 172 167 138 123 126 149 159 168 142 147 138 117 117 159 151 155 105 118 94 108 109 110 127 171 145 119 114 95 59 320 329 329 296 297 277 281 291
153 152 150 154 155 153 149 149 150 152 156 154 145 146 154 158 161 150 143 146 158 155 157 162 163 159 163 137 147 146 159 167 157 132 140 134 122 119 133 134 117 107 140 126 95 97 97 96 120 143 145 107 57 37 325 327 324 335 311 273 278 269 275
149 148 147 147 145 145 148 152 147 141 141 137 141 146 147 155 158 147 152 156 152 155 163 158 160 161 156 159 161 164 167 162 146 150 145 120 100 117 114 122 133 143 129 125 145 127 136 130 145 106 74 42 52 342 335 318 302 308 293 319 330 309 271
134 133 147 150 147 151 154 158 151 143 147 148 143 138 147 154 160 157 157 157 161 156 166 172 171 169 160 160 166 172 165 155 150 154 141 128 141 124 133 135 139 141 130 136 134 151 151 173 154 102 86 48 350 330 312 301 296 290 289 274 267 281 289
129 116 110 112 124 134 142 144 132 132 140 133 123 138 154 152 146 153 161 158 153 165 173 177 171 164 167 167 170 164 158 173 158 157 155 146 172 150 161 150 138 139 129 139 145 152 164 145 150 113 109 304 306 287 290 311 303 302 280 270 259 267 271
124 125 128 135 140 142 138 140 147 144 136 134 132 135 147 152 159 162 164 155 167 179 181 177 168 168 182 171 162 176 179 185 173 173 168 173 185 162 152 142 135 137 136 138 138 153 139 129 120 151 184 235 273 294 291 278 281 284 295 296 280 262 266
137 141 145 145 142 145 156 157 142 135 143 145 154 159 159 162 162 163 163 179 180 173 179 183 171 179 179 176 170 183 194 192 187 202 187 188 184 168 157 143 139 143 137 143 159 188 221 227 43 246 273 254 255 266 279 281 282 280 280 287 288 272 265
153 154 154 153 153 148 136 150 159 158 157 163 161 161 164 165 169 171 178 188 192 182 178 179 176 184 184 180 183 185 198 196 201 203 196 188 172 159 147 149 152 150 175 196 174 183 187 315 309 261 235 273 267 292 287 296 283 278 282 290 282 274 273
138 139 138 131 137 150 160 163 159 161 167 162 166 165 168 177 175 181 186 191 193 184 178 176 174 183 186 184 188 194 199 199 201 196 199 178 152 155 159 153 166 186 177 162 165 168 196 188 294 355 7 346 355 316 304 303 314 304 301 294 312 319 305
152 153 153 153 160 159 156 165 169 168 170 171 161 173 181 181 187 188 195 193 182 182 189 174 171 181 184 188 191 202 200 200 208 184 190 132 135 142 173 186 187 159 136 124 97 144 89 75 96 62 41 14 3 355 328 342 319 278 262 313 351 358 331
160 158 160 163 166 169 171 169 168 170 171 167 174 182 184 187 191 194 190 192 185 187 191 163 181 177 181 191 201 200 192 196 191 163 158 139 166 188 196 181 169 157 134 111 99 90 111 101 108 105 111 44 352 338 347 328 290 316 3 350 349 351 339
164 166 165 167 168 172 171 170 170 168 171 178 183 188 188 192 195 190 188 186 185 193 186 173 176 183 177 199 203 194 189 186 193 154 173 185 191 197 175 170 178 135 108 90 96 108 104 104 102 95 183 172 38 350 330 326 307 338 339 326 334 339 324
168 168 167 169 176 171 170 171 168 176 182 186 188 187 188 193 192 182 194 187 191 188 162 171 178 181 195 202 177 191 201 206 170 173 189 181 202 174 161 176 141 118 111 116 125 135 107 110 131 210 239 198 329 302 297 301 303 321 318 327 326 326 321
175 173 173 170 171 180 179 177 178 182 187 185 187 189 196 188 181 194 192 185 186 152 168 183 184 187 200 193 176 195 271 11 162 185 185 228 152 138 92 114 107 126 139 146 162 147 155 159 202 218 252 225 273 302 299 294 299 326 331 324 315 312 319
178 178 174 174 178 181 185 175 176 183 187 189 193 192 188 189 190 190 175 169 157 173 181 185 189 185 176 83 55 49 45 46 56 45 15 13 33 44 25 12 355 317 255 144 166 167 153 207 308 303 294 244 256 285 286 292 309 333 326 324 319 312 315
181 178 177 177 181 188 182 177 172 171 178 194 182 173 171 188 181 161 166 169 176 181 178 180 175 117 85 99 114 136 152 140 139 139 129 84 70 68 68 166 210 243 228 194 178 136 20 314 310 292 279 271 255 292 310 296 316 323 321 322 323 317 316
186 180 181 184 179 186 177 174 174 179 191 167 158 175 182 183 162 163 179 170 177 177 176 157 109 114 122 138 169 161 114 97 105 105 102 97 69 64 40 272 238 229 230 194 357 43 315 262 233 264 278 282 313 323 309 301 310 314 314 317 319 320 320
178 187 186 184 179 183 182 175 184 184 145 154 167 173 186 164 160 160 156 167 181 166 135 114 127 144 159 140 84 76 68 56 55 44 62 71 107 197 221 228 235 233 252 296 285 293 291 294 300 302 303 302 308 307 298 292 296 301 308 312 312 316 298
190 182 178 176 170 151 156 158 120 123 149 147 147 148 137 148 152 150 160 172 158 135 125 140 146 102 55 62 88 91 119 148 166 181 201 180 218 223 216 214 239 245 237 239 287 301 296 289 295 291 270 280 285 270 276 283 289 294 298 299 300 299 291
175 166 166 166 164 159 161 145 138 128 116 125 125 135 140 143 143 147 160 158 150 142 146 137 88 108 173 149 142 153 143 144 168 198 206 229 224 214 206 212 218 292 217 212 248 268 271 293 295 305 301 276 277 283 275 272 285 292 293 297 300 302 297
148 135 128 124 109 121 124 126 123 120 125 137 142 134 127 130 136 144 152 158 147 135 105 94 125 184 136 157 153 135 140 184 195 198 216 222 226 212 252 317 305 324 175 265 246 295 325 311 314 319 306 304 290 289 285 295 293 293 300 302 301 299 292
133 140 141 138 132 119 115 107 113 119 125 127 131 128 129 131 131 139 135 111 83 83 113 120 170 183 159 174 170 161 176 210 196 204 216 209 355 50 172 191 231 285 319 325 332 354 348 3 346 313 304 316 321 311 301 265 288 296 299 300 299 298 299
107 93 87 105 113 112 107 103 100 100 100 121 134 136 134 128 120 116 107 98 113 125 137 147 193 140 161 169 171 167 172 195 184 134 118 162 160 132 38 298 41 12 34 46 176 53 18 7 1 358 338 328 318 311 303 303 303 292 293 294 299 303 302
128 126 124 114 101 101 107 102 101 105 113 116 124 128 132 124 123 121 109 116 130 136 154 169 145 130 141 135 140 212 217 218 78 132 166 153 155 131 94 51 63 44 85 73 41 30 13 5 358 348 331 321 313 310 305 304 308 304 304 309 309 300 295
95 95 88 83 101 111 104 103 100 98 99 97 110 121 130 128 122 117 109 116 131 138 131 123 98 110 122 144 146 131 101 105 125 139 145 138 115 104 104 78 86 79 38 39 40 24 358 337 339 329 325 317 309 310 312 313 309 307 315 308 296 293 293
102 104 103 105 103 101 98 106 106 103 87 68 73 74 90 113 118 114 115 129 128 119 118 117 112 99 92 93 104 92 71 67 71 87 105 103 108 107 123 69 21 38 8 28 24 12 342 301 305 300 293 304 304 307 307 307 314 307 305 304 300 298 300
89 92 95 99 100 99 106 104 101 100 96 73 62 68 72 87 116 116 124 119 110 107 112 109 107 101 100 92 82 92 100 93 82 83 85 88 86 121 137 72 54 41 324 25 358 282 277 293 291 297 307 298 300 300 301 306 313 311 309 309 310 308 309
93 95 106 108 114 116 110 109 104 103 99 90 53 72 76 88 84 102 112 108 112 110 112 109 103 97 98 102 103 99 108 106 105 94 75 61 46 46 53 63 73 24 267 230 256 278 282 296 296 308 305 300 305 308 308 310 313 315 311 312 323 322 322
104 98 92 103 112 110 108 108 112 109 104 93 82 84 87 88 92 99 104 105 110 109 102 98 103 110 113 110 105 102 105 112 121 118 123 57 26 28 359 338 219 222 265 228 226 264 312 310 319 309 300 302 306 305 307 310 309 310 328 329 328 322 318
102 104 110 107 105 108 114 116 107 108 102 96 98 97 91 92 96 104 108 112 112 108 104 107 106 105 106 108 109 116 121 130 146 148 118 34 344 257 224 226 252 278 283 246 200 190 220 287 291 276 277 268 279 295 312 323 324 327 327 318 310 305 312
111 110 101 98 98 98 97 99 108 105 98 98 103 100 99 95 91 89 98 105 108 111 112 113 109 105 111 120 124 132 121 109 94 100 109 96 25 351 338 302 314 217 238 307 333 24 355 298 244 275 275 284 257 220 288 323 311 310 321 323 331 334 334
123 118 114 114 103 95 99 101 102 102 100 105 101 96 97 95 96 95 89 101 111 114 117 117 112 116 128 128 135 147 137 131 109 95 88 45 44 22 4 337 327 292 270 283 302 53 228 248 255 271 265 240 303 287 247 271 303 328 331 330 330 332 333
99 107 111 106 110 114 109 109 108 110 114 112 106 105 102 101 101 114 112 103 101 107 116 124 127 134 146 145 150 138 129 119 116 90 68 36 8 24 65 38 353 333 325 295 255 360 109 153 90 42 74 212 255 337 334 338 338 332 329 332 334 333 333